Volver al catálogo

SL-12 DEB

ActivoHEO
NORAD 29325·DEBRIS·🇷🇺 Russia

Lanzado May 31, 1989 desde Baikonur Cosmodrome

Loading…

Próximos Pases (próximas 24 horas)

TLE

ActualizadoSource: Space-Track

Época: Sep 14, 2026, 11:02 UTC

1 29325U 89039AG  26257.45993677  .00000110  00000-0  32247-3 0  9995
2 29325  65.0746 199.8186 5411825  91.4047 328.0475  4.59674526232086

Sigue SL-12 DEB en tiempo real con AllMySat

Download on the App Store